TimeEST,TemperatureF,Dew PointF,Humidity,Sea Level PressureIn,VisibilityMPH,Wind Direction,Wind SpeedMPH,Gust SpeedMPH,PrecipitationIn,Events,Conditions,WindDirDegrees,DateUTC
12:15 AM,38.3,32.0,78,29.97,10.0,NW,5.8,-,N/A,,Clear,310,2013-02-15 05:15:00
12:35 AM,37.6,30.7,76,29.98,10.0,WNW,6.9,-,N/A,,Clear,300,2013-02-15 05:35:00
12:55 AM,36.9,30.0,76,29.98,10.0,WNW,3.5,-,N/A,,Clear,300,2013-02-15 05:55:00
1:15 AM,36.5,29.3,75,29.99,10.0,WNW,3.5,-,N/A,,Clear,300,2013-02-15 06:15:00
1:35 AM,36.0,28.9,76,29.99,10.0,WNW,3.5,-,N/A,,Clear,290,2013-02-15 06:35:00
1:55 AM,35.6,28.4,75,29.99,10.0,WNW,4.6,-,N/A,,Clear,300,2013-02-15 06:55:00
2:15 AM,33.4,28.2,81,29.99,10.0,Calm,Calm,-,N/A,,Clear,0,2013-02-15 07:15:00
2:35 AM,32.9,28.2,83,29.99,10.0,Calm,Calm,-,N/A,,Clear,0,2013-02-15 07:35:00
2:55 AM,32.0,28.0,85,29.99,10.0,Calm,Calm,-,N/A,,Clear,0,2013-02-15 07:55:00
3:15 AM,32.4,28.4,85,29.99,10.0,Calm,Calm,-,N/A,,Clear,0,2013-02-15 08:15:00
3:35 AM,31.3,27.7,87,29.99,10.0,Calm,Calm,-,N/A,,Clear,0,2013-02-15 08:35:00
3:55 AM,30.0,26.4,86,29.99,10.0,Calm,Calm,-,N/A,,Clear,0,2013-02-15 08:55:00
4:15 AM,29.8,27.3,90,29.99,10.0,Calm,Calm,-,N/A,,Clear,0,2013-02-15 09:15:00
4:35 AM,29.7,26.6,88,30.00,10.0,Calm,Calm,-,N/A,,Clear,0,2013-02-15 09:35:00
4:55 AM,32.7,29.1,87,30.00,10.0,Calm,Calm,-,N/A,,Mostly Cloudy,0,2013-02-15 09:55:00
5:15 AM,30.6,27.9,90,30.01,10.0,Calm,Calm,-,N/A,,Overcast,0,2013-02-15 10:15:00
5:35 AM,30.0,27.9,92,30.02,10.0,Calm,Calm,-,N/A,,Overcast,0,2013-02-15 10:35:00
5:55 AM,29.7,27.5,92,30.02,7.0,Calm,Calm,-,N/A,,Overcast,0,2013-02-15 10:55:00
6:15 AM,29.8,27.5,91,30.02,10.0,Calm,Calm,-,N/A,,Mostly Cloudy,0,2013-02-15 11:15:00
6:35 AM,29.1,27.0,92,30.03,7.0,Calm,Calm,-,N/A,,Overcast,0,2013-02-15 11:35:00
6:55 AM,29.5,27.7,93,30.04,7.0,Calm,Calm,-,N/A,,Overcast,0,2013-02-15 11:55:00
7:15 AM,29.8,27.7,92,30.03,7.0,Calm,Calm,-,N/A,,Overcast,0,2013-02-15 12:15:00
7:35 AM,30.0,28.0,92,30.04,10.0,Calm,Calm,-,N/A,,Overcast,0,2013-02-15 12:35:00
7:55 AM,30.2,28.2,92,30.04,7.0,Calm,Calm,-,N/A,,Overcast,0,2013-02-15 12:55:00
8:15 AM,30.7,28.8,92,30.06,10.0,Calm,Calm,-,N/A,,Mostly Cloudy,0,2013-02-15 13:15:00
8:35 AM,31.6,29.5,92,30.07,10.0,Calm,Calm,-,N/A,,Overcast,0,2013-02-15 13:35:00
8:55 AM,32.0,30.2,93,30.07,7.0,Calm,Calm,-,N/A,,Overcast,0,2013-02-15 13:55:00
9:15 AM,32.9,30.6,91,30.07,10.0,Calm,Calm,-,N/A,,Overcast,0,2013-02-15 14:15:00
9:35 AM,34.2,31.5,90,30.08,10.0,Calm,Calm,-,N/A,,Overcast,0,2013-02-15 14:35:00
9:55 AM,34.9,31.6,88,30.07,10.0,Calm,Calm,-,N/A,,Overcast,0,2013-02-15 14:55:00
10:15 AM,35.1,31.1,85,30.07,10.0,Calm,Calm,-,N/A,,Overcast,0,2013-02-15 15:15:00
10:35 AM,36.1,31.8,84,30.07,10.0,Calm,Calm,-,N/A,,Overcast,0,2013-02-15 15:35:00
10:55 AM,37.4,31.5,79,30.07,10.0,Calm,Calm,-,N/A,,Overcast,0,2013-02-15 15:55:00
11:15 AM,37.8,31.1,77,30.06,10.0,Calm,Calm,-,N/A,,Overcast,0,2013-02-15 16:15:00
11:35 AM,37.4,31.1,78,30.06,10.0,NW,5.8,-,N/A,,Overcast,310,2013-02-15 16:35:00
11:55 AM,36.9,30.0,76,30.06,10.0,WNW,4.6,-,N/A,Rain,Light Rain,290,2013-02-15 16:55:00
12:15 PM,36.1,30.9,81,30.06,10.0,NW,4.6,-,N/A,,Overcast,320,2013-02-15 17:15:00
12:35 PM,36.0,30.7,81,30.05,10.0,Calm,Calm,-,N/A,Rain,Light Rain,0,2013-02-15 17:35:00
1:15 PM,38.1,31.8,78,30.04,10.0,South,4.6,-,N/A,,Overcast,190,2013-02-15 18:15:00
1:35 PM,37.4,30.4,76,30.03,10.0,SSW,4.6,-,N/A,,Light Drizzle,200,2013-02-15 18:35:00
1:55 PM,38.1,31.8,78,30.03,10.0,SW,3.5,-,N/A,,Light Drizzle,230,2013-02-15 18:55:00
2:15 PM,37.4,31.5,79,30.02,10.0,WSW,5.8,-,N/A,Rain,Light Rain,250,2013-02-15 19:15:00
2:35 PM,38.3,31.5,76,30.02,10.0,SSW,4.6,-,N/A,,Overcast,200,2013-02-15 19:35:00
2:55 PM,38.5,31.8,77,30.02,10.0,WSW,8.1,-,N/A,,Overcast,250,2013-02-15 19:55:00
3:15 PM,38.3,31.8,77,30.02,10.0,WSW,10.4,-,N/A,,Overcast,240,2013-02-15 20:15:00
3:35 PM,38.7,31.6,76,30.02,10.0,WSW,6.9,-,N/A,,Overcast,250,2013-02-15 20:35:00
3:55 PM,37.9,31.3,77,30.02,10.0,SW,9.2,-,N/A,,Overcast,230,2013-02-15 20:55:00
4:15 PM,36.5,32.2,84,30.02,5.0,WSW,5.8,-,N/A,Rain,Light Rain,240,2013-02-15 21:15:00
4:35 PM,37.4,32.0,81,30.03,10.0,SW,9.2,-,N/A,,Overcast,230,2013-02-15 21:35:00
4:55 PM,36.1,31.3,83,30.04,10.0,NNW,15.0,18.4,N/A,,Overcast,330,2013-02-15 21:55:00
5:15 PM,33.8,30.2,87,30.04,7.0,WNW,5.8,-,N/A,Snow,Light Snow,300,2013-02-15 22:15:00
5:35 PM,33.8,30.0,86,30.06,5.0,WNW,6.9,-,N/A,Snow,Light Snow,300,2013-02-15 22:35:00
5:55 PM,32.5,30.2,91,30.06,1.5,WNW,4.6,-,N/A,Snow,Light Snow,290,2013-02-15 22:55:00
6:15 PM,32.2,30.7,94,30.06,5.0,West,3.5,-,N/A,Snow,Light Snow,260,2013-02-15 23:15:00
6:35 PM,32.0,30.6,94,30.06,10.0,Calm,Calm,-,N/A,,Overcast,0,2013-02-15 23:35:00
6:55 PM,32.0,30.2,93,30.06,10.0,Calm,Calm,-,N/A,,Mostly Cloudy,0,2013-02-15 23:55:00
7:15 PM,31.1,29.3,93,30.08,7.0,Calm,Calm,-,N/A,,Scattered Clouds,0,2013-02-16 00:15:00
7:35 PM,32.0,30.2,93,30.08,7.0,Calm,Calm,-,N/A,,Mostly Cloudy,0,2013-02-16 00:35:00
7:55 PM,31.5,29.8,94,30.08,7.0,WSW,3.5,-,N/A,,Overcast,250,2013-02-16 00:55:00
8:15 PM,32.0,30.4,94,30.09,7.0,WSW,4.6,-,N/A,,Overcast,240,2013-02-16 01:15:00
8:35 PM,32.0,30.2,93,30.09,7.0,WSW,3.5,-,N/A,,Overcast,250,2013-02-16 01:35:00
8:55 PM,32.0,30.2,93,30.09,7.0,West,4.6,-,N/A,,Overcast,260,2013-02-16 01:55:00
9:15 PM,32.0,30.0,92,30.09,7.0,Calm,Calm,-,N/A,,Overcast,0,2013-02-16 02:15:00
9:35 PM,31.8,29.8,92,30.09,7.0,West,4.6,-,N/A,,Overcast,270,2013-02-16 02:35:00
9:55 PM,31.5,29.7,93,30.09,7.0,West,4.6,-,N/A,,Overcast,270,2013-02-16 02:55:00
10:15 PM,31.8,29.8,92,30.09,7.0,WNW,4.6,-,N/A,Snow,Light Snow,290,2013-02-16 03:15:00
10:35 PM,31.6,29.1,90,30.09,10.0,WNW,5.8,-,N/A,,Overcast,290,2013-02-16 03:35:00
10:55 PM,31.8,28.9,89,30.09,10.0,NW,6.9,-,N/A,,Overcast,320,2013-02-16 03:55:00
11:15 PM,30.2,25.2,82,30.10,10.0,North,11.5,-,N/A,,Overcast,350,2013-02-16 04:15:00
11:35 PM,30.0,23.7,77,30.10,10.0,NNW,5.8,-,N/A,,Overcast,340,2013-02-16 04:35:00
11:55 PM,29.8,23.0,76,30.09,10.0,NNW,6.9,-,N/A,,Overcast,330,2013-02-16 04:55:00